Temp
59 59 59 60 60 60 60 60 60 60 60 60 61 61 61 61 61 56 49 57 59 65 62 54 54 52 51 48 49 46 33 29 32 34 36 43 41 46 51 47 51 56 56 60 63
59 59 59 59 59 59 60 60 60 60 60 60 60 61 61 60 53 51 60 65 66 65 53 49 47 49 43 44 44 38 31 32 38 39 39 43 41 44 44 45 49 52 58 61 61
58 58 58 58 59 59 59 60 60 60 60 60 60 61 60 57 49 50 65 66 66 62 55 53 50 47 41 42 40 39 33 39 41 43 43 42 42 44 42 41 46 46 51 55 59
57 57 58 58 58 58 59 59 59 59 59 60 60 61 60 52 39 54 65 65 64 59 55 50 46 39 36 36 40 35 41 42 43 45 43 40 44 41 41 44 50 50 55 55 57
57 57 57 57 58 58 59 59 59 59 59 59 60 61 53 47 47 60 63 62 59 56 50 47 42 39 33 34 38 34 38 42 43 43 42 44 41 40 41 46 50 51 55 54 56
56 56 56 57 57 58 58 59 59 59 59 59 60 60 49 42 58 60 58 57 56 53 49 47 43 42 37 36 34 38 38 40 42 42 43 41 40 41 43 48 47 50 53 54 55
56 56 56 57 57 57 58 58 59 59 59 60 60 56 49 47 57 58 58 55 55 53 49 49 47 42 39 37 41 39 35 38 40 41 40 42 38 38 48 46 45 50 53 54 56
56 56 56 56 57 57 58 58 59 59 59 60 60 51 44 57 55 57 57 54 56 55 53 51 50 44 39 42 40 34 34 27 38 40 41 40 30 43 47 46 44 48 52 53 55
56 56 56 56 57 57 57 58 58 59 60 60 51 47 42 60 53 55 54 51 52 53 52 57 49 41 41 32 27 27 21 29 33 41 39 37 33 42 47 48 44 49 49 50 53
56 56 56 56 56 57 58 58 59 57 56 57 54 44 49 47 51 54 54 53 49 48 47 44 40 34 33 25 19 24 18 27 26 36 40 36 35 40 44 45 44 46 48 49 50
56 56 56 56 57 58 52 48 45 45 47 41 42 43 47 52 52 51 52 50 48 45 36 40 32 26 28 31 29 23 22 24 29 38 35 33 34 38 41 42 42 44 45 46 48
56 56 56 56 57 56 47 42 39 41 38 46 46 46 49 48 44 49 53 44 43 36 39 34 27 36 38 37 33 25 22 25 31 38 35 33 32 39 40 40 42 42 43 45 47
56 55 55 56 56 49 43 42 47 44 38 42 45 45 45 48 42 44 48 43 40 37 36 31 36 41 38 35 34 35 29 28 27 34 35 32 30 35 40 41 43 44 44 44 44
56 55 55 56 49 44 41 47 47 44 25 37 41 44 47 45 41 49 48 43 41 35 36 35 40 39 36 35 36 31 38 35 34 31 22 32 18 33 35 36 39 41 42 42 43
55 54 55 53 42 41 44 46 45 42 21 37 40 50 47 41 42 44 47 44 36 36 36 35 35 34 35 37 38 36 40 36 36 32 29 29 23 32 36 33 35 38 41 41 43
55 54 54 47 42 42 45 43 41 27 20 32 38 37 38 40 41 44 43 45 42 36 36 36 40 37 36 39 38 40 36 36 34 30 21 27 25 27 30 34 36 37 40 41 43
54 53 49 47 40 43 42 38 26 22 32 27 31 35 34 34 37 38 36 31 26 24 21 33 35 38 39 34 37 37 31 22 18 16 18 29 27 27 34 37 36 36 38 41 43
54 51 47 45 42 42 39 29 21 18 19 33 33 34 30 33 34 35 32 27 33 28 18 21 24 34 39 34 32 32 31 23 16 17 22 30 25 29 36 39 39 42 42 42 41
52 41 40 41 43 40 32 19 22 20 32 32 32 26 24 32 31 30 26 25 30 31 24 20 25 37 37 38 35 31 28 33 26 15 19 22 29 34 36 36 36 39 40 38 37
43 42 38 41 41 37 25 27 22 31 34 34 26 27 17 21 26 26 26 31 31 34 34 29 23 32 36 37 36 33 36 27 25 12 12 22 25 26 31 33 34 34 34 34 36
42 32 38 41 39 29 21 18 20 32 34 32 29 20 27 23 20 23 27 31 32 32 33 32 28 29 33 30 28 31 30 31 30 28 21 18 24 31 34 35 34 33 35 33 34
40 33 39 39 25 9 18 19 34 31 33 31 31 31 29 27 23 23 28 31 33 33 30 32 30 22 28 33 35 31 29 30 24 24 25 27 25 35 36 36 35 34 35 34 34
33 34 41 42 27 15 17 19 27 30 31 31 28 32 32 30 24 28 27 34 34 33 31 33 22 14 22 29 33 30 33 33 31 29 25 20 24 35 34 33 34 33 33 34 32
34 29 34 36 33 28 16 18 21 31 32 33 32 32 30 26 23 23 30 33 35 34 40 37 28 23 20 26 26 29 31 33 30 20 25 26 25 29 31 32 32 33 34 33 33
33 33 33 27 25 30 30 23 21 23 31 33 29 31 29 20 23 22 23 29 32 37 32 29 17 20 27 29 29 29 30 31 29 29 26 27 27 32 34 34 34 34 34 34 35
33 32 33 31 32 32 32 25 29 29 28 26 27 31 30 25 30 24 29 28 28 29 30 30 15 16 13 23 24 23 27 28 30 30 28 29 29 36 35 33 31 34 34 34 34
38 40 40 34 31 31 29 31 31 34 32 34 31 29 29 32 32 30 31 31 31 28 21 19 13 9 12 12 14 16 20 28 27 28 31 27 34 32 30 35 35 35 36 36 35
MSLP
1023.12 1023.08 1022.81 1022.63 1022.49 1022.21 1022.08 1021.75 1021.44 1021.23 1020.97 1020.73 1020.47 1020.05 1019.68 1019.31 1018.87 1018.74 1018.98 1019.34 1018.86 1018.27 1017.99 1017.82 1017.22 1017.06 1016.96 1017.72 1018.00 1018.50 1019.71 1020.24 1019.99 1019.99 1019.59 1018.98 1018.78 1017.78 1017.28 1016.81 1015.67 1014.80 1014.31 1013.82 1012.91
1023.14 1023.11 1022.96 1022.81 1022.55 1022.32 1022.11 1021.79 1021.48 1021.19 1020.94 1020.62 1020.40 1020.12 1019.82 1019.47 1019.45 1019.38 1019.47 1019.04 1018.76 1018.41 1018.41 1018.40 1018.13 1017.94 1018.42 1018.93 1019.28 1019.77 1020.62 1020.55 1020.35 1020.27 1020.03 1019.69 1019.20 1018.51 1017.69 1016.91 1015.62 1014.83 1013.73 1013.40 1012.85
1023.16 1023.10 1022.98 1022.80 1022.63 1022.31 1022.10 1021.79 1021.47 1021.17 1020.92 1020.71 1020.42 1020.11 1019.88 1019.63 1019.66 1019.85 1019.33 1019.04 1018.81 1018.61 1018.71 1018.92 1018.94 1018.93 1019.67 1020.04 1020.56 1020.50 1020.81 1020.59 1020.04 1020.00 1019.93 1019.52 1018.99 1018.54 1018.09 1016.99 1016.13 1015.71 1014.81 1014.10 1012.93
1023.13 1023.16 1023.00 1022.80 1022.61 1022.30 1022.16 1021.83 1021.46 1021.15 1020.84 1020.60 1020.38 1020.13 1019.83 1019.81 1020.32 1019.87 1019.43 1019.27 1019.07 1018.95 1019.06 1019.33 1019.38 1020.10 1021.10 1021.39 1021.57 1021.28 1021.10 1020.83 1020.18 1019.84 1020.02 1019.68 1019.19 1018.71 1018.10 1017.14 1016.21 1015.60 1015.16 1014.32 1012.30
1023.10 1023.11 1022.92 1022.91 1022.57 1022.21 1022.10 1021.83 1021.50 1021.13 1020.82 1020.54 1020.26 1020.08 1020.02 1020.07 1020.27 1019.81 1019.58 1019.44 1019.30 1019.37 1019.70 1020.06 1020.61 1021.35 1021.79 1022.08 1021.82 1021.97 1021.45 1020.67 1020.27 1019.96 1019.66 1019.42 1019.00 1018.58 1017.51 1016.78 1016.03 1015.32 1014.71 1014.25 1012.60
1023.02 1023.12 1022.84 1022.81 1022.54 1022.18 1022.01 1021.78 1021.37 1021.10 1020.80 1020.45 1020.25 1019.96 1020.00 1020.20 1019.95 1019.94 1019.80 1019.68 1019.75 1019.84 1020.34 1020.61 1021.31 1021.56 1021.94 1022.12 1022.01 1021.92 1021.58 1020.68 1020.26 1019.69 1019.50 1019.26 1018.59 1018.19 1017.27 1016.78 1015.75 1014.79 1014.06 1013.73 1013.62
1022.87 1023.00 1022.84 1022.69 1022.56 1022.09 1021.87 1021.68 1021.32 1020.95 1020.66 1020.52 1020.28 1020.26 1020.08 1020.19 1019.87 1019.99 1019.90 1019.94 1020.03 1020.28 1020.61 1020.99 1021.29 1021.53 1021.97 1022.22 1022.24 1022.30 1021.80 1021.00 1020.76 1020.45 1019.83 1019.31 1018.79 1018.51 1017.65 1016.31 1015.22 1014.66 1013.83 1013.50 1013.89
1022.84 1022.90 1022.76 1022.58 1022.36 1022.05 1021.71 1021.50 1021.16 1020.91 1020.71 1020.50 1020.43 1020.45 1020.30 1019.81 1019.91 1020.04 1020.04 1020.11 1020.18 1020.34 1020.68 1020.99 1021.19 1021.58 1022.07 1022.22 1022.46 1022.81 1022.51 1022.33 1021.67 1020.88 1020.17 1019.53 1019.36 1018.48 1017.35 1015.91 1015.43 1014.87 1014.50 1014.64 1015.92
1022.85 1022.91 1022.75 1022.56 1022.28 1021.82 1021.53 1021.22 1021.01 1020.80 1020.69 1020.58 1020.63 1020.67 1020.54 1019.97 1020.11 1020.26 1020.27 1020.37 1020.36 1020.46 1020.70 1020.93 1021.37 1021.93 1022.18 1022.77 1023.57 1024.08 1024.28 1023.82 1022.52 1021.72 1021.00 1020.51 1020.19 1019.33 1018.15 1016.90 1016.17 1015.59 1015.39 1015.73 1015.70
1022.84 1022.78 1022.74 1022.49 1022.25 1021.76 1021.23 1021.00 1021.00 1020.94 1020.78 1020.62 1020.75 1021.12 1020.65 1020.83 1020.53 1020.47 1020.31 1020.48 1020.60 1020.62 1020.98 1021.43 1021.96 1022.41 1023.13 1023.62 1025.03 1025.24 1025.18 1024.44 1023.55 1022.68 1021.79 1021.26 1020.71 1019.97 1019.14 1018.19 1017.32 1016.92 1015.36 1016.87 1015.65
1022.63 1022.78 1022.66 1022.46 1022.24 1021.72 1021.24 1021.20 1021.90 1021.92 1021.57 1021.68 1021.54 1021.39 1021.27 1021.03 1020.70 1020.40 1020.48 1020.63 1020.78 1020.88 1021.37 1021.80 1022.69 1023.32 1023.65 1023.99 1024.72 1025.19 1024.99 1024.65 1023.45 1023.14 1022.78 1022.11 1021.36 1020.52 1019.87 1019.15 1018.32 1017.61 1016.80 1016.43 1016.78
1022.65 1022.69 1022.55 1022.42 1022.18 1021.90 1021.84 1022.47 1023.07 1023.50 1022.89 1022.12 1021.66 1021.38 1021.50 1021.56 1021.19 1020.65 1020.54 1020.84 1020.87 1021.42 1021.59 1022.19 1022.83 1022.98 1023.45 1023.85 1024.56 1024.81 1024.83 1024.45 1023.16 1022.79 1023.07 1022.41 1021.93 1021.00 1020.30 1020.20 1019.71 1019.16 1018.75 1017.30 1015.73
1022.63 1022.66 1022.55 1022.34 1022.14 1022.50 1022.87 1023.29 1023.21 1023.28 1023.18 1022.63 1022.04 1021.75 1021.77 1021.61 1021.54 1021.23 1021.05 1021.18 1021.34 1021.60 1021.94 1022.13 1022.32 1022.63 1022.92 1023.13 1023.62 1023.90 1023.88 1023.73 1023.11 1022.41 1022.49 1022.55 1022.08 1021.15 1020.75 1020.00 1019.12 1019.41 1019.44 1019.32 1019.44
1022.58 1022.60 1022.59 1022.19 1022.70 1023.05 1023.44 1023.46 1023.21 1023.27 1023.64 1023.24 1022.36 1021.93 1021.84 1021.69 1021.59 1021.34 1021.37 1021.66 1021.48 1021.86 1021.99 1022.07 1021.82 1022.16 1022.43 1022.43 1022.70 1022.69 1022.61 1022.98 1022.79 1022.60 1022.58 1022.37 1023.13 1022.27 1022.12 1021.73 1021.49 1021.47 1021.81 1021.52 1020.81
1022.62 1022.53 1022.67 1022.52 1023.13 1023.57 1023.81 1023.53 1023.34 1023.41 1024.23 1023.79 1022.60 1022.01 1022.03 1022.26 1022.21 1021.57 1021.64 1021.52 1022.05 1022.33 1022.63 1022.18 1021.73 1021.75 1021.94 1021.65 1021.99 1022.05 1022.08 1022.60 1022.64 1022.50 1022.73 1022.68 1023.08 1023.38 1022.93 1023.05 1023.29 1022.95 1022.40 1022.45 1021.82
1022.39 1022.69 1022.95 1023.05 1023.51 1023.94 1023.90 1023.82 1023.83 1024.23 1024.63 1023.89 1023.06 1022.75 1022.79 1022.58 1022.46 1022.16 1022.13 1022.07 1022.55 1022.59 1022.74 1022.46 1021.66 1021.63 1021.52 1021.64 1021.58 1021.61 1022.02 1022.44 1022.65 1022.92 1022.96 1023.30 1023.64 1023.62 1023.66 1023.99 1023.91 1023.98 1023.59 1023.10 1022.39
1022.41 1022.73 1023.21 1023.44 1024.06 1023.81 1023.93 1024.58 1025.17 1025.17 1025.67 1024.97 1024.05 1023.80 1023.72 1023.68 1023.33 1023.28 1023.40 1023.55 1024.08 1023.87 1024.28 1023.01 1022.12 1021.79 1021.60 1021.69 1021.72 1021.79 1022.35 1023.12 1023.89 1023.98 1024.30 1023.13 1023.06 1023.45 1023.82 1024.11 1024.23 1024.31 1023.95 1023.46 1023.49
1022.68 1022.94 1023.60 1023.98 1024.09 1023.95 1024.23 1025.27 1026.28 1026.09 1025.50 1024.92 1024.75 1024.74 1024.79 1024.61 1024.42 1024.47 1024.61 1024.81 1025.11 1025.08 1025.35 1024.90 1023.01 1022.28 1022.02 1022.04 1022.25 1022.40 1022.81 1023.38 1024.35 1025.07 1024.70 1023.88 1023.73 1023.14 1023.69 1024.11 1024.18 1024.29 1024.35 1024.17 1024.32
1022.75 1023.69 1024.10 1024.28 1024.05 1024.15 1024.90 1026.58 1026.65 1026.23 1025.30 1025.09 1025.39 1025.49 1025.71 1025.62 1025.48 1025.36 1025.47 1025.54 1025.62 1025.55 1025.63 1025.52 1023.97 1022.89 1022.32 1022.22 1022.51 1022.52 1022.84 1023.34 1024.14 1025.47 1025.30 1024.69 1023.80 1023.15 1023.39 1024.00 1024.35 1024.35 1024.96 1025.38 1025.56
1022.89 1023.77 1024.71 1024.41 1024.25 1024.60 1026.07 1027.07 1027.01 1026.28 1025.73 1025.40 1025.68 1025.75 1026.61 1026.54 1026.50 1026.16 1025.92 1025.72 1025.72 1025.61 1025.50 1025.94 1025.25 1023.59 1023.01 1022.57 1022.69 1022.66 1022.92 1023.47 1024.18 1025.26 1025.35 1024.69 1024.07 1023.28 1023.43 1023.99 1024.79 1025.29 1025.52 1025.88 1026.12
1022.76 1024.06 1024.65 1024.54 1024.53 1025.37 1027.55 1028.01 1027.20 1026.37 1026.03 1025.99 1025.89 1026.35 1026.50 1026.92 1027.18 1026.93 1026.36 1025.92 1025.75 1025.81 1025.83 1025.86 1026.14 1024.57 1023.76 1023.57 1023.68 1023.43 1023.26 1023.55 1024.18 1024.53 1024.77 1024.75 1023.38 1022.34 1022.83 1023.51 1024.60 1025.52 1026.04 1026.27 1026.38
1022.53 1024.25 1024.64 1024.66 1025.83 1027.16 1028.33 1027.76 1027.30 1026.73 1026.23 1026.11 1025.78 1025.82 1026.19 1026.71 1027.36 1027.26 1026.51 1025.88 1025.65 1025.83 1026.03 1026.21 1026.52 1026.31 1024.83 1024.06 1023.83 1024.06 1023.92 1023.92 1024.42 1024.70 1024.58 1024.36 1023.10 1022.55 1022.77 1023.25 1024.12 1025.47 1026.21 1026.28 1026.67
1022.70 1024.24 1024.60 1024.53 1025.87 1027.65 1028.07 1028.01 1027.52 1027.13 1026.51 1026.17 1025.95 1025.75 1026.11 1026.61 1027.28 1027.04 1026.51 1026.16 1026.02 1025.99 1026.18 1026.61 1027.13 1027.12 1025.85 1025.29 1024.51 1024.41 1024.15 1024.00 1024.30 1024.53 1024.43 1024.45 1023.14 1022.76 1023.28 1024.04 1024.72 1025.44 1026.34 1026.82 1026.75
1022.44 1023.95 1024.88 1024.92 1025.66 1026.46 1027.60 1027.79 1027.42 1026.72 1026.34 1026.13 1026.04 1025.99 1026.44 1027.03 1027.09 1027.05 1026.81 1026.36 1026.22 1026.34 1026.54 1026.86 1027.75 1028.38 1027.83 1026.79 1026.03 1025.34 1024.68 1024.33 1024.38 1024.70 1024.03 1023.47 1023.22 1023.45 1023.75 1024.33 1024.82 1025.25 1025.87 1026.93 1026.94
1021.61 1022.36 1022.56 1024.37 1025.09 1025.44 1026.17 1026.47 1026.72 1026.42 1026.36 1026.03 1026.07 1025.89 1026.28 1027.15 1027.62 1027.12 1027.27 1027.03 1026.90 1026.68 1027.26 1027.91 1029.04 1029.43 1028.51 1027.71 1027.09 1026.04 1025.22 1024.74 1024.52 1024.03 1023.91 1022.98 1022.93 1022.47 1022.65 1023.31 1023.85 1024.39 1024.99 1026.09 1026.65
1020.79 1021.72 1022.43 1023.04 1023.23 1024.31 1025.12 1025.20 1025.20 1025.41 1025.49 1025.88 1025.65 1025.08 1025.64 1026.39 1026.18 1026.29 1026.93 1027.21 1027.11 1027.82 1028.03 1028.79 1030.14 1030.72 1030.17 1029.09 1028.08 1026.61 1025.23 1024.70 1024.12 1023.66 1023.16 1023.07 1022.66 1021.74 1022.11 1023.17 1024.05 1024.31 1024.61 1025.21 1026.08
1019.45 1020.13 1020.11 1022.16 1022.87 1023.42 1023.30 1022.91 1023.22 1023.65 1024.15 1024.09 1024.70 1025.09 1025.44 1025.25 1025.85 1026.31 1026.40 1026.86 1026.95 1027.92 1029.51 1030.14 1031.04 1032.45 1031.85 1030.16 1028.53 1026.58 1023.31 1023.05 1022.71 1022.24 1021.95 1022.14 1021.17 1021.64 1022.16 1022.45 1022.80 1023.60 1024.11 1024.61 1025.42
Wind_Speed
7 8 9 9 11 12 12 13 13 14 14 15 15 14 13 13 9 6 8 6 8 14 12 9 8 7 5 5 6 3 5 1 2 4 7 6 8 3 4 6 8 4 4 9 16
6 7 8 10 10 12 12 13 13 14 14 14 14 13 11 10 2 6 4 10 12 13 7 11 11 7 5 5 5 6 3 1 2 3 4 6 5 9 7 8 5 9 18 18 14
4 6 7 9 10 11 12 13 14 14 14 14 14 12 10 5 3 4 8 12 13 11 4 4 5 4 6 4 7 3 2 2 2 3 4 5 6 4 6 5 3 11 17 16 15
4 5 7 8 10 11 13 13 14 14 14 13 12 11 10 2 2 3 8 11 11 8 7 7 7 6 5 5 5 3 3 3 5 3 4 5 5 6 5 8 11 11 11 10 16
3 4 6 8 10 11 12 13 14 14 13 12 9 10 3 5 2 4 6 7 5 4 8 6 8 3 4 2 3 2 3 4 6 8 6 6 7 7 10 8 14 15 8 10 19
2 4 6 9 10 12 13 13 14 14 12 8 7 6 1 5 2 4 5 3 5 5 7 6 4 2 3 1 2 3 7 4 6 9 2 4 8 3 6 16 16 12 6 7 16
1 5 7 9 12 13 14 14 13 12 8 7 5 2 5 3 1 3 5 1 2 3 3 3 2 4 0 3 4 6 3 6 11 14 4 7 3 6 17 17 8 3 2 9 16
2 5 7 9 12 14 14 15 13 9 7 4 4 2 2 1 0 3 4 2 3 1 3 2 2 3 1 2 5 4 5 6 7 13 6 4 8 15 20 11 3 5 7 12 13
2 5 8 10 12 13 15 14 9 4 4 3 3 3 1 2 3 4 1 2 3 2 3 2 3 3 5 4 6 7 2 7 7 9 5 10 6 15 18 15 13 11 15 16 9
3 5 8 11 13 14 15 8 3 3 2 1 0 2 3 3 4 4 3 1 2 2 3 3 5 4 5 5 1 3 3 4 3 7 9 13 12 14 16 14 13 11 19 8 12
2 6 8 11 14 15 6 3 5 4 7 3 0 1 4 7 1 1 2 2 1 3 4 3 8 1 3 3 4 3 4 1 3 4 4 8 11 14 14 17 15 14 11 10 11
2 5 8 12 14 11 3 5 3 2 3 3 2 2 1 2 4 3 5 2 3 2 4 6 2 2 7 5 4 3 3 4 5 2 5 6 8 12 15 13 13 16 14 15 20
2 4 8 11 12 5 4 3 1 1 4 2 2 2 3 4 2 5 4 1 4 2 4 3 1 7 4 4 1 1 2 3 6 3 4 4 5 17 15 18 20 20 18 16 14
2 3 8 13 3 1 3 4 2 1 6 5 4 3 3 2 2 2 2 2 3 2 2 3 2 6 3 1 2 4 3 1 4 5 2 3 2 12 12 14 18 18 15 14 14
3 3 6 7 2 3 1 3 1 3 4 2 3 2 3 3 4 5 2 3 3 3 4 2 2 1 3 3 5 5 3 2 3 7 2 7 5 2 5 10 11 14 15 13 12
4 3 4 3 3 1 4 4 3 9 5 2 2 4 2 5 5 6 5 6 1 2 1 5 3 1 2 3 4 1 3 3 4 3 6 4 2 4 5 5 7 9 11 12 12
7 6 4 1 1 3 3 4 8 6 4 4 1 2 2 4 4 6 5 6 3 6 6 6 0 4 2 2 2 4 4 3 6 7 3 8 3 5 2 3 3 6 9 11 11
9 6 5 2 3 2 3 8 5 3 6 2 1 1 2 3 3 5 2 4 4 4 3 3 7 2 3 2 1 2 0 4 3 1 3 5 4 3 4 5 4 6 6 8 9
11 2 2 3 4 3 6 6 8 6 3 8 3 4 4 1 1 2 1 2 1 2 5 3 6 4 1 1 2 1 3 1 5 3 3 3 5 4 2 2 4 6 6 7 7
4 3 2 5 3 5 7 5 3 3 1 0 5 2 5 3 1 2 1 2 2 1 3 3 4 1 4 1 1 1 1 3 4 2 3 4 4 5 6 6 3 4 4 4 5
4 4 3 5 3 6 4 7 4 3 2 1 3 3 2 3 3 2 3 2 1 1 1 3 3 5 2 4 1 5 1 3 2 2 4 1 7 5 10 9 8 5 5 3 4
4 2 3 2 5 1 3 5 2 2 0 2 2 3 5 5 3 2 5 3 2 2 2 0 2 5 4 1 1 2 2 1 5 4 1 2 7 5 6 9 10 7 4 6 4
4 3 1 0 3 2 3 2 1 2 3 3 3 2 2 5 1 3 3 1 1 3 4 1 2 4 9 6 4 2 3 2 2 2 4 4 6 4 4 6 5 8 6 4 4
5 4 2 2 1 5 5 3 3 1 2 2 2 2 4 1 2 4 5 3 3 3 4 2 3 6 6 3 2 4 3 4 4 3 3 6 3 4 6 8 7 8 8 5 5
2 4 4 5 5 5 3 4 4 3 2 4 1 6 6 3 2 4 2 1 1 3 3 4 4 0 5 6 3 4 6 6 8 6 7 4 7 8 15 14 12 10 9 8 6
7 5 1 2 4 10 6 8 10 4 8 5 6 7 7 6 7 8 6 4 5 1 5 1 3 3 5 4 2 7 11 11 11 7 8 5 9 8 6 7 7 10 10 9 7
3 1 3 9 6 7 8 7 12 10 7 3 7 6 7 9 4 0 3 3 5 8 4 3 6 4 6 4 6 9 11 17 6 7 9 12 9 6 5 13 16 13 12 12 9
Wind_Direction
22 14 15 12 3 1 356 357 353 352 351 349 347 347 346 346 350 21 36 335 343 342 347 326 352 3 27 48 34 71 57 11 330 19 291 334 353 303 271 321 313 349 351 294 322
24 14 10 4 1 355 350 350 348 347 346 347 347 347 348 348 17 43 312 346 338 345 355 2 355 355 50 23 23 64 77 310 37 309 306 308 320 304 340 325 290 327 334 334 328
24 12 6 1 351 350 345 345 344 343 343 344 345 343 341 346 65 344 335 350 355 357 350 347 336 26 51 13 7 2 126 275 276 302 339 293 296 302 304 288 274 316 305 319 320
27 6 360 353 345 346 340 341 339 338 338 338 340 338 335 7 86 309 336 350 5 23 18 12 17 43 57 40 340 75 257 274 273 275 301 282 285 288 246 261 293 291 297 297 350
24 354 354 341 341 339 336 336 334 331 330 330 334 340 343 46 32 334 340 2 27 29 37 30 37 25 71 16 8 28 277 279 277 288 263 277 277 261 263 284 303 294 267 318 5
7 340 343 336 334 334 334 332 330 328 326 326 334 342 40 73 290 347 358 19 27 37 33 40 68 65 91 27 103 286 263 316 339 355 308 323 295 347 318 314 295 274 241 351 7
348 335 338 335 331 332 332 330 329 325 326 326 345 14 65 161 10 345 19 56 32 32 48 50 121 81 28 353 5 290 304 5 19 351 29 318 5 319 321 312 268 239 100 38 342
325 330 331 331 332 332 331 329 325 319 323 335 360 356 100 297 190 356 352 42 36 47 72 86 76 78 53 252 20 330 30 10 345 0 332 19 318 323 334 337 251 87 56 50 315
302 322 329 332 331 331 328 328 318 312 336 0 20 31 107 343 3 318 2 10 329 65 80 107 26 33 340 66 11 12 41 359 339 355 331 31 334 334 354 18 21 42 46 27 303
290 321 331 332 331 330 327 331 334 355 347 313 357 55 5 316 305 328 314 8 66 57 64 16 28 39 28 53 358 309 45 327 345 332 3 24 6 356 9 17 26 34 50 353 10
279 322 334 335 333 333 353 41 33 355 36 64 103 324 330 303 270 300 14 12 118 54 38 16 51 62 1 55 111 142 108 291 276 17 313 357 6 9 10 19 20 26 27 20 16
274 328 340 338 335 348 53 73 121 190 53 355 320 334 307 352 339 329 8 63 52 32 348 33 39 143 119 84 104 44 49 312 301 166 340 339 354 24 18 16 27 31 20 12 15
238 339 342 338 333 24 56 78 108 134 101 359 7 349 320 10 334 306 32 322 73 67 16 125 144 152 164 150 324 235 211 241 230 308 168 321 332 16 9 19 20 22 19 18 9
186 359 348 339 57 338 36 317 24 94 78 323 356 358 347 350 331 327 61 59 38 41 14 249 113 169 188 204 127 333 175 222 278 314 54 55 305 22 360 21 27 15 12 9 5
162 35 7 47 142 57 308 313 352 56 42 298 329 302 315 41 314 4 10 24 62 344 62 267 20 67 190 213 162 229 131 216 318 322 340 6 77 16 27 14 8 2 11 5 16
136 61 22 34 59 9 335 354 36 45 262 19 324 345 9 15 351 319 17 38 145 37 326 258 288 117 256 291 190 345 80 0 1 353 17 355 17 22 17 353 355 357 2 3 16
131 84 75 72 108 1 47 33 41 119 348 285 77 23 90 1 353 30 16 18 67 46 356 330 247 324 26 350 109 61 72 352 359 10 215 327 29 228 94 40 19 356 2 3 11
126 89 44 60 1 36 67 50 85 241 218 215 164 81 112 4 15 358 34 25 48 62 96 76 329 35 3 65 327 355 27 154 220 199 269 349 319 308 97 135 124 14 26 36 11
119 32 43 357 7 53 73 59 208 207 161 151 96 90 327 346 170 51 109 169 243 56 136 74 287 319 78 59 134 3 52 316 104 23 39 289 288 306 127 82 57 47 35 24 355
104 98 4 328 5 67 72 231 186 218 21 303 160 145 168 245 134 107 181 226 175 125 126 157 322 302 299 34 59 286 183 45 353 76 309 282 270 233 200 207 175 123 98 50 17
83 75 277 336 63 51 148 224 247 237 1 215 201 112 206 189 172 218 205 166 163 101 105 135 127 285 12 37 30 348 3 76 127 144 160 259 264 219 192 173 177 173 132 97 76
119 114 302 8 58 14 152 187 294 220 228 264 107 117 174 159 147 199 200 192 125 136 133 57 134 277 236 277 159 195 268 137 122 254 209 185 273 336 200 163 152 164 165 143 121
109 114 300 34 151 272 307 311 201 157 220 175 179 162 190 174 86 188 223 254 124 143 151 163 329 348 343 4 19 283 235 193 112 71 217 141 265 15 104 134 140 143 163 157 130
117 119 34 54 78 140 144 241 233 245 209 190 156 115 90 249 20 192 213 191 171 145 142 135 156 178 199 223 177 281 248 228 159 131 207 227 233 234 195 174 176 167 154 182 170
97 205 180 177 242 159 152 127 144 205 255 191 317 208 165 138 346 230 302 156 218 179 110 125 186 178 259 252 256 248 245 239 211 220 186 239 206 220 204 193 186 177 158 163 170
138 148 350 109 121 147 181 213 179 181 152 243 207 187 173 177 192 196 154 194 198 142 161 101 207 117 295 338 320 266 246 236 239 236 251 248 268 217 170 133 164 186 169 166 181
158 331 128 156 146 142 202 196 202 148 221 181 192 122 187 225 179 45 117 109 154 154 163 135 129 80 268 337 332 305 225 209 193 215 184 210 219 160 182 182 190 187 181 179 174